When you browse on this site, cookies collect data to enhance your experience and personalize the content and advertising you see.
Visit our Privacy Policy to learn more. By continuing to use the site, you agree to this use of cookies and data.
  • In Latvia
  • List of Countries
  • For 7 days
  • Water Temperature
  • Weather Map
  • Weather Widgets
  • user-avatar
    Login

    Hourly Weather Plotichno

    Today, 14 October, Monday

    Time Temperature Precipitation Wind Pressure Humidity
    00:00 +7°C° 0 mm 2 mps 745 mmHg 95%
    01:00 +6°C° 0 mm 2 mps 746 mmHg 96%
    02:00 +6°C° 0 mm 2 mps 746 mmHg 96%
    03:00 +6°C° 0 mm 2 mps 746 mmHg 97%
    04:00 +6°C° 0 mm 2 mps 745 mmHg 97%
    05:00 +6°C° 0 mm 2 mps 745 mmHg 97%
    06:00 +6°C° 0 mm 2 mps 745 mmHg 96%
    07:00 +7°C° 0 mm 3 mps 744 mmHg 95%
    08:00 +8°C° 0 mm 3 mps 744 mmHg 94%
    09:00 +8°C° 0.4 mm 4 mps 743 mmHg 93%
    10:00 +11°C° 0.4 mm 4 mps 742 mmHg 92%
    11:00 +12°C° 0.4 mm 5 mps 741 mmHg 91%
    12:00 +13°C° 0 mm 5 mps 741 mmHg 87%
    13:00 +15°C° 0 mm 5 mps 740 mmHg 82%
    14:00 +16°C° 0 mm 5 mps 739 mmHg 78%
    15:00 +16°C° 0 mm 5 mps 739 mmHg 80%
    16:00 +15°C° 0 mm 5 mps 739 mmHg 82%
    17:00 +15°C° 0 mm 5 mps 739 mmHg 84%
    18:00 +15°C° 0.1 mm 5 mps 739 mmHg 84%
    19:00 +14°C° 0.1 mm 5 mps 739 mmHg 83%
    20:00 +14°C° 0.1 mm 5 mps 739 mmHg 82%
    21:00 +13°C° 0 mm 5 mps 740 mmHg 82%
    22:00 +12°C° 0 mm 5 mps 740 mmHg 82%
    23:00 +10°C° 0 mm 5 mps 740 mmHg 81%

    Tomorrow, 15 October, Tuesday

    Time Temperature Precipitation Wind Pressure Humidity
    00:00 +11°C° 0 mm 4 mps 741 mmHg 83%
    01:00 +10°C° 0 mm 4 mps 742 mmHg 85%
    02:00 +10°C° 0 mm 4 mps 743 mmHg 87%
    03:00 +10°C° 0 mm 4 mps 744 mmHg 88%
    04:00 +10°C° 0 mm 3 mps 744 mmHg 88%
    05:00 +10°C° 0 mm 3 mps 745 mmHg 89%
    06:00 +9°C° 0 mm 3 mps 746 mmHg 89%
    07:00 +9°C° 0 mm 3 mps 746 mmHg 88%
    08:00 +8°C° 0 mm 3 mps 747 mmHg 88%
    09:00 +8°C° 0 mm 3 mps 748 mmHg 86%
    10:00 +7°C° 0 mm 2 mps 748 mmHg 84%
    11:00 +7°C° 0 mm 2 mps 749 mmHg 82%
    12:00 +7°C° 0 mm 2 mps 749 mmHg 80%
    13:00 +9°C° 0 mm 1 mps 750 mmHg 78%
    14:00 +9°C° 0 mm 1 mps 750 mmHg 76%
    15:00 +8°C° 0 mm 1 mps 750 mmHg 78%
    16:00 +8°C° 0 mm 1 mps 750 mmHg 80%
    17:00 +7°C° 0 mm 1 mps 750 mmHg 82%
    18:00 +7°C° 0 mm 1 mps 750 mmHg 84%
    19:00 +6°C° 0 mm 1 mps 751 mmHg 86%
    20:00 +6°C° 0 mm 1 mps 751 mmHg 88%
    21:00 +5°C° 0 mm 2 mps 751 mmHg 88%
    22:00 +5°C° 0 mm 2 mps 751 mmHg 88%
    23:00 +5°C° 0 mm 2 mps 751 mmHg 88%

    Day after tomorrow, 16 October, Wednesday

    Time Temperature Precipitation Wind Pressure Humidity
    00:00 +5°C° 0 mm 2 mps 751 mmHg 88%
    01:00 +4°C° 0 mm 3 mps 751 mmHg 89%
    02:00 +4°C° 0 mm 3 mps 751 mmHg 90%
    03:00 +4°C° 0 mm 3 mps 750 mmHg 90%
    04:00 +4°C° 0 mm 3 mps 750 mmHg 91%
    05:00 +4°C° 0 mm 3 mps 749 mmHg 92%
    06:00 +4°C° 0 mm 4 mps 749 mmHg 92%
    07:00 +5°C° 0 mm 4 mps 749 mmHg 91%
    08:00 +5°C° 0 mm 4 mps 748 mmHg 90%
    09:00 +6°C° 0 mm 4 mps 748 mmHg 88%
    10:00 +8°C° 0 mm 5 mps 747 mmHg 85%
    11:00 +9°C° 0 mm 5 mps 747 mmHg 82%
    12:00 +10°C° 0 mm 5 mps 746 mmHg 81%
    13:00 +12°C° 0 mm 5 mps 746 mmHg 79%
    14:00 +13°C° 0 mm 5 mps 745 mmHg 77%
    15:00 +12°C° 0 mm 4 mps 744 mmHg 80%
    16:00 +12°C° 0 mm 4 mps 744 mmHg 83%
    17:00 +12°C° 0 mm 4 mps 743 mmHg 86%
    18:00 +12°C° 0 mm 4 mps 743 mmHg 87%
    19:00 +11°C° 0 mm 4 mps 743 mmHg 88%
    20:00 +11°C° 0 mm 3 mps 743 mmHg 89%
    21:00 +11°C° 0 mm 3 mps 742 mmHg 88%
    22:00 +11°C° 0 mm 3 mps 742 mmHg 88%
    23:00 +10°C° 0 mm 3 mps 742 mmHg 87%

    17 October, Thursday

    Time Temperature Precipitation Wind Pressure Humidity
    00:00 +11°C° 0 mm 3 mps 742 mmHg 89%
    01:00 +11°C° 0 mm 3 mps 742 mmHg 90%
    02:00 +11°C° 0 mm 3 mps 742 mmHg 91%
    03:00 +11°C° 0.1 mm 3 mps 742 mmHg 92%
    04:00 +12°C° 0.1 mm 3 mps 742 mmHg 93%
    05:00 +12°C° 0.1 mm 3 mps 742 mmHg 94%
    06:00 +12°C° 0 mm 4 mps 742 mmHg 93%
    07:00 +12°C° 0 mm 4 mps 742 mmHg 92%
    08:00 +12°C° 0 mm 4 mps 742 mmHg 90%
    09:00 +12°C° 0 mm 4 mps 743 mmHg 88%
    10:00 +12°C° 0 mm 4 mps 743 mmHg 86%
    11:00 +12°C° 0 mm 4 mps 743 mmHg 83%
    12:00 +13°C° 0 mm 4 mps 743 mmHg 80%
    13:00 +13°C° 0 mm 4 mps 743 mmHg 76%
    14:00 +13°C° 0 mm 4 mps 743 mmHg 72%
    15:00 +13°C° 0.1 mm 3 mps 743 mmHg 76%
    16:00 +13°C° 0.1 mm 2 mps 743 mmHg 80%
    17:00 +12°C° 0.1 mm 2 mps 743 mmHg 83%
    18:00 +12°C° 0.1 mm 1 mps 743 mmHg 85%
    19:00 +12°C° 0.1 mm 1 mps 744 mmHg 87%
    20:00 +11°C° 0.1 mm 1 mps 744 mmHg 89%
    21:00 +11°C° 0.3 mm 1 mps 744 mmHg 91%
    22:00 +11°C° 0.3 mm 1 mps 744 mmHg 93%
    23:00 +11°C° 0.3 mm 1 mps 744 mmHg 95%

    18 October, Friday

    Time Temperature Precipitation Wind Pressure Humidity
    00:00 +10°C° 0 mm 1 mps 745 mmHg 95%
    01:00 +10°C° 0 mm 1 mps 745 mmHg 96%
    02:00 +10°C° 0 mm 1 mps 745 mmHg 96%
    03:00 +10°C° 0 mm 1 mps 745 mmHg 96%
    04:00 +10°C° 0 mm 1 mps 746 mmHg 96%
    05:00 +9°C° 0 mm 0 mps 746 mmHg 95%
    06:00 +10°C° 0 mm 1 mps 746 mmHg 95%
    07:00 +10°C° 0 mm 1 mps 747 mmHg 94%
    08:00 +10°C° 0 mm 1 mps 747 mmHg 93%
    09:00 +10°C° 0 mm 1 mps 748 mmHg 91%
    10:00 +11°C° 0 mm 1 mps 748 mmHg 89%
    11:00 +10°C° 0 mm 2 mps 748 mmHg 87%
    12:00 +10°C° 0.1 mm 2 mps 749 mmHg 87%
    13:00 +10°C° 0.1 mm 2 mps 749 mmHg 87%
    14:00 +10°C° 0.1 mm 2 mps 749 mmHg 87%
    15:00 +10°C° 0 mm 2 mps 749 mmHg 88%
    16:00 +9°C° 0 mm 2 mps 749 mmHg 89%
    17:00 +9°C° 0 mm 2 mps 749 mmHg 91%
    18:00 +9°C° 0.1 mm 2 mps 749 mmHg 91%
    19:00 +8°C° 0.1 mm 2 mps 749 mmHg 91%
    20:00 +8°C° 0.1 mm 2 mps 750 mmHg 92%
    21:00 +8°C° 0 mm 2 mps 750 mmHg 93%
    22:00 +8°C° 0 mm 2 mps 750 mmHg 93%
    23:00 +8°C° 0 mm 2 mps 750 mmHg 94%

    19 October, Saturday

    Time Temperature Precipitation Wind Pressure Humidity
    00:00 +8°C° 0 mm 2 mps 750 mmHg 95%
    01:00 +8°C° 0 mm 2 mps 750 mmHg 95%
    02:00 +8°C° 0 mm 2 mps 750 mmHg 96%
    03:00 +8°C° 0 mm 2 mps 750 mmHg 96%
    04:00 +8°C° 0 mm 2 mps 750 mmHg 96%
    05:00 +8°C° 0 mm 2 mps 750 mmHg 96%
    06:00 +8°C° 0.1 mm 2 mps 750 mmHg 96%
    07:00 +9°C° 0.1 mm 2 mps 750 mmHg 96%
    08:00 +9°C° 0.1 mm 2 mps 750 mmHg 95%
    09:00 +9°C° 0.4 mm 2 mps 750 mmHg 95%
    10:00 +9°C° 0.4 mm 2 mps 750 mmHg 95%
    11:00 +10°C° 0.4 mm 2 mps 750 mmHg 95%
    12:00 +10°C° 0.1 mm 2 mps 750 mmHg 94%
    13:00 +10°C° 0.1 mm 2 mps 750 mmHg 94%
    14:00 +12°C° 0.1 mm 2 mps 750 mmHg 93%
    15:00 +12°C° 0 mm 2 mps 750 mmHg 94%
    16:00 +10°C° 0 mm 2 mps 750 mmHg 95%
    17:00 +11°C° 0 mm 1 mps 750 mmHg 96%
    18:00 +11°C° 0 mm 1 mps 750 mmHg 96%
    19:00 +9°C° 0 mm 2 mps 750 mmHg 96%
    20:00 +9°C° 0 mm 2 mps 751 mmHg 96%
    21:00 +9°C° 0 mm 2 mps 751 mmHg 96%
    22:00 +9°C° 0 mm 2 mps 751 mmHg 97%
    23:00 +10°C° 0 mm 1 mps 751 mmHg 97%
    Show more